Meteo Giornale » Osservazioni meteo Francia » Brest
ore: 20:30 - Osservazioni Meteo Brest
Lat. 48° 27' N Lon. 4° 25' W Alt. 99 metri s.l.m.
17 °C
Sereno
Temp. 24 Ore
15 °C
21 °C
Nord
5.5 Km/h
Dew point 12 °C
Umidità 72 %
Visibilità 10 Km
Il sole sorge alle ore 07:33
Il sole tramonta alle ore 21:02
| Data e Ora | Cielo e Fenomeni | T °C | DP °C | Um. % | Pres. hPa | Vis. km | Vento km/h | |
|---|---|---|---|---|---|---|---|---|
| Oggi h: 20:30 | Sereno | 17 | 12 | 72 | 1022 | 10 | N 5.5 | |
| Oggi h: 20:00 | Sereno | 18 | 12 | 67 | 1021 | 10 | NO 11.1 | |
| Oggi h: 19:30 | Poco Nuvoloso | 18 | 12 | 67 | 1021 | 10 | NO 11.1 | |
| Oggi h: 19:00 | Poco Nuvoloso | 19 | 12 | 63 | 1021 | 10 | NO 9.3 | |
| Oggi h: 18:30 | Molto Nuvoloso | 19 | 13 | 68 | 1021 | 10 | NO 16.7 | |
| Oggi h: 18:00 | Molto Nuvoloso | 19 | 13 | 68 | 1021 | 10 | NO 16.7 | |
| Oggi h: 17:30 | Molto Nuvoloso | 20 | 13 | 64 | 1021 | 10 | O/NO 18.5 | |
| Oggi h: 17:00 | Molto Nuvoloso | 20 | 13 | 64 | 1021 | 10 | O/NO 16.7 | |
| Oggi h: 16:30 | Molto Nuvoloso | 20 | 13 | 64 | 1020 | 10 | NO 20.3 | |
| Oggi h: 16:00 | Molto Nuvoloso | 20 | 13 | 64 | 1020 | 10 | O/NO 18.5 | |
| Oggi h: 15:30 | Molto Nuvoloso | 21 | 14 | 64 | 1020 | 10 | O/NO 18.5 | |
| Oggi h: 15:00 | Molto Nuvoloso | 20 | 13 | 64 | 1020 | 10 | NO 14.8 | |
| Oggi h: 14:30 | Molto Nuvoloso | 20 | 14 | 68 | 1020 | 10 | O/NO 20.3 | |
| Oggi h: 14:00 | Molto Nuvoloso | 20 | 15 | 72 | 1020 | 10 | O/NO 18.5 | |
| Oggi h: 13:30 | Molto Nuvoloso | 18 | 16 | 88 | 1020 | 10 | NO 14.8 | |
| Oggi h: 13:00 | Molto Nuvoloso | 19 | 13 | 68 | 1019 | 10 | O/NO 16.7 | |
| Oggi h: 12:30 | Molto Nuvoloso | 19 | 13 | 68 | 1019 | 10 | O/NO 18.5 | |
| Oggi h: 12:00 | Molto Nuvoloso | 19 | 13 | 68 | 1019 | 10 | O/NO 24 | |
| Oggi h: 11:30 | Molto Nuvoloso | 18 | 15 | 82 | 1018 | 10 | O/NO 18.5 | |
| Oggi h: 11:00 | Molto Nuvoloso | 18 | 15 | 82 | 1018 | 10 | O/NO 16.7 | |
| Oggi h: 10:30 | Coperto | 17 | 15 | 88 | 1017 | 10 | NO 16.7 | |
| Oggi h: 10:00 | Molto Nuvoloso | 18 | 15 | 82 | 1017 | 10 | O/NO 20.3 | |
| Oggi h: 09:30 | Molto Nuvoloso | 17 | 14 | 82 | 1017 | 10 | O 14.8 | |
| Oggi h: 09:00 | Molto Nuvoloso | 16 | 15 | 93 | 1016 | 10 | O 16.7 | |
| Oggi h: 08:30 | Pioggia | 16 | 15 | 93 | 1016 | 10 | O/NO 18.5 | |
| Oggi h: 08:00 | Molto Nuvoloso | 16 | 14 | 87 | 1015 | 10 | O 16.7 | |
| Oggi h: 07:30 | Molto Nuvoloso | 16 | 15 | 93 | 1015 | 10 | O 14.8 | |
| Oggi h: 07:00 | Molto Nuvoloso | 16 | 15 | 93 | 1015 | 10 | O 16.7 | |
| Oggi h: 06:30 | Molto Nuvoloso | 16 | 15 | 93 | 1014 | 10 | O 18.5 | |
| Oggi h: 06:00 | Molto Nuvoloso | 16 | 14 | 87 | 1014 | 10 | O 18.5 | |
| Oggi h: 05:30 | Molto Nuvoloso | 16 | 14 | 87 | 1014 | 10 | O/SO 16.7 | |
| Oggi h: 05:00 | Molto Nuvoloso | 15 | 14 | 93 | 1014 | 10 | O 18.5 | |
| Oggi h: 04:30 | Molto Nuvoloso | 16 | 14 | 87 | 1013 | 10 | O 14.8 | |
| Oggi h: 04:00 | Molto Nuvoloso | 16 | 15 | 93 | 1013 | 10 | O/SO 18.5 | |
| Oggi h: 03:30 | Molto Nuvoloso | 16 | 15 | 93 | 1013 | 10 | O/SO 22.2 | |
| Oggi h: 03:00 | Molto Nuvoloso | 16 | 15 | 93 | 1013 | 10 | O/SO 24 | |
| Oggi h: 02:30 | Molto Nuvoloso | 16 | 15 | 93 | 1013 | 10 | O/SO 25.9 | |
| Oggi h: 02:00 | Molto Nuvoloso | 16 | 15 | 93 | 1013 | 10 | O/SO 22.2 | |
| Oggi h: 01:30 | Poco Nuvoloso | 16 | 15 | 93 | 1012 | 10 | O/SO 24 | |
| Oggi h: 01:00 | Molto Nuvoloso | 16 | 15 | 93 | 1012 | 10 | O/SO 20.3 | |
| Oggi h: 00:30 | Nuvoloso | 16 | 15 | 93 | 1012 | 10 | O/SO 18.5 | |
| Oggi h: 00:00 | Molto Nuvoloso | 16 | 15 | 93 | 1012 | 10 | O/SO 24 | |
| Ieri h: 23:30 | Molto Nuvoloso | 17 | 15 | 88 | 1012 | 10 | O/SO 22.2 | |
| Ieri h: 23:00 | Molto Nuvoloso | 17 | 15 | 88 | 1011 | 10 | O/SO 24 | |
| Ieri h: 22:30 | Molto Nuvoloso | 17 | 15 | 88 | 1011 | 10 | SO 29.6 | |
| Ieri h: 22:00 | Molto Nuvoloso | 17 | 15 | 88 | 1011 | 10 | SO 27.8 | |
| Ieri h: 21:30 | Nuvoloso | 17 | 15 | 88 | 1011 | 10 | SO 25.9 | |
| Ieri h: 21:00 | Poco Nuvoloso | 17 | 15 | 88 | 1011 | 10 | SO 25.9 | |



